| time (UTC) | temp C | wind direction | speed KPH | gust KPH | rain 1hr cm | rain 24hr cm | rain mn cm | humidity % | barometer mb |
| 20260505070024 | 15 | 262 | 0.0 | 1.6 | 0.00 | 0.00 | 0.00 | 55 | 1011.8 |
| 20260505064521 | 16 | 231 | 0.0 | 1.6 | 0.00 | 0.00 | 0.00 | 54 | 1011.8 |
| 20260505063021 | 16 | 282 | 0.0 | 1.6 | 0.00 | 0.00 | 0.00 | 54 | 1011.8 |
| 20260505061519 | 16 | 222 | 0.0 | 1.6 | 0.00 | 0.00 | 0.00 | 54 | 1011.8 |
| 20260505060017 | 16 | 223 | 0.0 | 3.2 | 0.00 | 0.00 | 0.00 | 52 | 1011.7 |
| 20260505054514 | 17 | 218 | 0.0 | 3.2 | 0.00 | 0.00 | 0.00 | 51 | 1011.7 |
| 20260505053011 | 17 | 223 | 0.0 | 3.2 | 0.00 | 0.00 | 0.00 | 51 | 1011.6 |
| 20260505051511 | 17 | 215 | 0.0 | 3.2 | 0.00 | 0.00 | 0.00 | 50 | 1011.7 |
| 20260505041601 | 17 | 215 | 0.0 | 1.6 | 0.00 | 0.00 | 0.00 | 54 | 1011.6 |
| 20260505040104 | 17 | 208 | 0.0 | 3.2 | 0.00 | 0.00 | 0.00 | 52 | 1011.6 |
| 20260505034557 | 17 | 311 | 0.0 | 0.0 | 0.00 | 0.00 | 0.00 | 53 | 1011.8 |
| 20260505033058 | 17 | 323 | 0.0 | 0.0 | 0.00 | 0.00 | 0.00 | 55 | 1011.8 |
| 20260505031601 | 18 | 323 | 0.0 | 0.0 | 0.00 | 0.00 | 0.00 | 53 | 1011.7 |
| 20260505030100 | 18 | 308 | 0.0 | 0.0 | 0.00 | 0.00 | 0.00 | 55 | 1011.7 |
| 20260505024555 | 18 | 315 | 0.0 | 1.6 | 0.00 | 0.00 | 0.00 | 55 | 1011.8 |
| 20260505023056 | 18 | 241 | 0.0 | 1.6 | 0.00 | 0.00 | 0.00 | 55 | 1011.8 |
| 20260505021555 | 18 | 265 | 0.0 | 1.6 | 0.00 | 0.00 | 0.00 | 55 | 1011.8 |
| 20260505020053 | 18 | 230 | 0.0 | 8.0 | 0.00 | 0.00 | 0.00 | 55 | 1011.8 |
| 20260505014604 | 18 | 217 | 0.0 | 6.4 | 0.00 | 0.00 | 0.00 | 56 | 1011.7 |
| 20260505013051 | 18 | 207 | 0.0 | 3.2 | 0.00 | 0.00 | 0.00 | 56 | 1011.6 |
| 20260505011552 | 18 | 208 | 0.0 | 1.6 | 0.00 | 0.00 | 0.00 | 57 | 1011.3 |
| 20260505010050 | 19 | 337 | 0.0 | 1.6 | 0.00 | 0.00 | 0.00 | 57 | 1011.1 |
| 20260505004555 | 19 | 104 | 0.0 | 4.8 | 0.00 | 0.00 | 0.00 | 56 | 1010.9 |
| 20260505003053 | 20 | 308 | 0.0 | 1.6 | 0.00 | 0.00 | 0.00 | 55 | 1010.7 |
| 20260505001549 | 20 | 324 | 0.0 | 1.6 | 0.00 | 0.00 | 0.00 | 53 | 1010.6 |
| 20260505000055 | 21 | 210 | 0.0 | 6.4 | 0.00 | 0.00 | 0.00 | 51 | 1010.6 |
| 20260504234547 | 22 | 288 | 0.0 | 3.2 | 0.00 | 0.00 | 0.00 | 45 | 1010.4 |
| 20260504233047 | 22 | 239 | 1.6 | 8.0 | 0.00 | 0.00 | 0.00 | 44 | 1010.3 |
| 20260504231545 | 22 | 315 | 0.0 | 9.7 | 0.00 | 0.00 | 0.00 | 44 | 1010.3 |
| 20260504230049 | 23 | 223 | 0.0 | 11.3 | 0.00 | 0.00 | 0.00 | 44 | 1010.3 |
| 20260504224547 | 23 | 153 | 0.0 | 14.5 | 0.00 | 0.00 | 0.00 | 43 | 1010.5 |
| 20260504223042 | 23 | 259 | 3.2 | 9.7 | 0.00 | 0.00 | 0.00 | 43 | 1010.5 |
| 20260504221540 | 23 | 203 | 1.6 | 11.3 | 0.00 | 0.00 | 0.00 | 43 | 1010.6 |
| 20260504220039 | 23 | 7 | 4.8 | 11.3 | 0.00 | 0.00 | 0.00 | 43 | 1010.8 |
| 20260504214537 | 23 | 247 | 3.2 | 11.3 | 0.00 | 0.00 | 0.00 | 44 | 1010.8 |
| 20260504213039 | 23 | 168 | 3.2 | 11.3 | 0.00 | 0.00 | 0.00 | 44 | 1011.0 |
| 20260504211535 | 23 | 323 | 4.8 | 24.1 | 0.00 | 0.00 | 0.00 | 43 | 1011.0 |
| 20260504210046 | 23 | 316 | 4.8 | 14.5 | 0.00 | 0.00 | 0.00 | 47 | 1010.9 |
| 20260504204544 | 22 | 332 | 1.6 | 11.3 | 0.00 | 0.00 | 0.00 | 48 | 1010.8 |
| 20260504203031 | 22 | 147 | 0.0 | 9.7 | 0.00 | 0.00 | 0.00 | 48 | 1010.8 |
| 20260504201526 | 22 | 168 | 3.2 | 14.5 | 0.00 | 0.00 | 0.00 | 47 | 1011.2 |
| 20260504200026 | 22 | 178 | 3.2 | 19.3 | 0.00 | 0.00 | 0.00 | 46 | 1011.3 |
| 20260504194524 | 23 | 213 | 4.8 | 12.9 | 0.00 | 0.00 | 0.00 | 44 | 1011.6 |
| 20260504193021 | 22 | 291 | 6.4 | 17.7 | 0.00 | 0.00 | 0.00 | 44 | 1011.9 |
| 20260504191519 | 22 | 238 | 3.2 | 16.1 | 0.00 | 0.00 | 0.00 | 47 | 1012.0 |
| 20260504190018 | 22 | 114 | 4.8 | 11.3 | 0.00 | 0.00 | 0.00 | 47 | 1012.1 |
| 20260504184515 | 21 | 291 | 4.8 | 16.1 | 0.00 | 0.00 | 0.00 | 47 | 1012.2 |
| 20260504183013 | 20 | 116 | 1.6 | 14.5 | 0.00 | 0.00 | 0.00 | 49 | 1012.5 |
| 20260504181511 | 21 | 288 | 3.2 | 12.9 | 0.00 | 0.00 | 0.00 | 48 | 1012.8 |
| 20260504180010 | 21 | 200 | 4.8 | 12.9 | 0.00 | 0.00 | 0.00 | 47 | 1013.0 |
| 20260504174510 | 21 | 298 | 3.2 | 14.5 | 0.00 | 0.00 | 0.00 | 46 | 1012.9 |
| 20260504173007 | 21 | 291 | 4.8 | 14.5 | 0.00 | 0.00 | 0.00 | 45 | 1013.1 |
| 20260504171505 | 21 | 228 | 6.4 | 16.1 | 0.00 | 0.00 | 0.00 | 48 | 1013.4 |
| 20260504160103 | 20 | 277 | 4.8 | 17.7 | 0.00 | 0.00 | 0.00 | 48 | 1014.4 |
| 20260504081501 | 12 | 301 | 0.0 | 8.0 | 0.00 | 0.00 | 0.00 | 48 | 1015.5 |